User: anonymous   Login
Location: Unspecified
(0.0000°N, 0.0000°E)
Time: 03:45:38
(UTC+00:00)
Language:

ALSAT 1N - Orbit

View from above orbital plane
View from above orbital plane
View from above satellite
View from above satellite

Ground track
Ground track

The orbit data is extracted from the following two-line orbital elements,

1 41789U 16059G   24170.84753888  .00001259  00000-0  23395-3 0  9997
2 41789  97.8279 196.1793 0026975 356.1964   3.9032 14.66572235413132
Epoch (UTC): 18 June 2024 20:20:27
Eccentricity: 0.0026975
inclination: 97.8279°
perigee height: 653 km
apogee height: 691 km
right ascension of ascending node: 196.1793°
argument of perigee: 356.1964°
revolutions per day: 14.66572235
mean anomaly at epoch: 3.9032°
orbit number at epoch: 41313

The dashed part of the orbit path shows where the satellite is in the earth's shadow,  

DLR